Villa Grove, CO

11:03 PM MDT on August 25, 2016 (GMT -0600)
Monarch Pass

Weather History for KMYP - October, 2012

Change the Weather History Date:

Saturday, October 27, 2012

  Actual Average (KGUC) Record (KGUC)
Temperature  
Mean Temperature 22 °F -  
Max Temperature 30 °F 49 °F 66 °F (2008)
Min Temperature 14 °F 21 °F 5 °F (1997)
Degree Days  
Heating Degree Days 43    
Moisture  
Dew Point 5 °F    
Average Humidity 51    
Maximum Humidity 68    
Minimum Humidity 37    
Precipitation  
Precipitation 0.00 in - - ()
Sea Level Pressure  
Sea Level Pressure 30.29 in    
Wind  
Wind Speed 38 mph (West)    
Max Wind Speed 50 mph    
Max Gust Speed 59 mph    
Averages and records for this station are not official NWS values.
T = Trace of Precipitation, MM = Missing Value Source: NWS Daily Summary

Daily Weather History Graph

Daily Weather History Graph

Search for Another Location

Airport or City:

Trip Planner

Search our weather history database for the weather conditions in past years. The results will help you decide how hot, cold, wet, or windy it might be!

Date:

Astronomy

Oct. 27, 2012 Rise Set
Actual Time 7:27 AM MDT 6:10 PM MDT
Civil Twilight 6:59 AM MDT 6:37 PM MDT
Nautical Twilight 6:28 AM MDT 7:08 PM MDT
Astronomical Twilight 5:57 AM MDT 7:39 PM MDT
Moon 4:57 PM MDT (10/27) 5:25 AM MDT (10/27)
Length of Visible Light 11h 37m
Length of Day
10h 43m
Waxing Gibbous, 96% of the Moon is Illuminated
Oct 27
Waxing Gibbous
Oct 29
Full
Nov 6
Last Quarter
Nov 13
New
Nov 20
First Quarter

Hourly Weather History & Observations

Time (MDT) Temp. Windchill Dew Point Humidity Pressure Visibility Wind Dir Wind Speed Gust Speed Precip Events Conditions
12:14 AM 14.0 °F -6.5 °F -4.0 °F 45% 30.29 in - West 28.8 mph - N/A   Clear
12:34 AM 14.0 °F -7.1 °F -4.0 °F 45% 30.29 in - West 31.1 mph - N/A   Clear
12:54 AM 14.0 °F -6.8 °F -2.2 °F 49% 30.28 in - West 29.9 mph - N/A   Scattered Clouds
1:14 AM 15.8 °F - -0.4 °F 49% 30.27 in - North - - N/A   Mostly Cloudy
1:34 AM 14.0 °F -6.2 °F -2.2 °F 49% 30.27 in - WSW 27.6 mph - N/A   Overcast
1:54 AM 14.0 °F - -0.4 °F 53% 30.25 in - North - - N/A   Overcast
2:34 AM 14.0 °F - 1.4 °F 57% 30.27 in - North - - N/A   Overcast
2:54 AM 14.0 °F - 1.4 °F 57% 30.27 in - North - - N/A   Overcast
3:14 AM 15.8 °F - -2.2 °F 45% 30.27 in - North - - N/A   Overcast
3:34 AM 14.0 °F -8.0 °F -2.2 °F 49% 30.27 in - West 34.5 mph - N/A   Overcast
3:54 AM 14.0 °F - -0.4 °F 53% 30.26 in - North - - N/A   Overcast
4:14 AM 14.0 °F - -0.4 °F 53% 30.27 in - North - - N/A   Overcast
4:34 AM 14.0 °F - 1.4 °F 57% 30.25 in - North - - N/A   Mostly Cloudy
4:54 AM 15.8 °F - 1.4 °F 53% 30.26 in - North - - N/A   Mostly Cloudy
5:14 AM 15.8 °F -6.1 °F 1.4 °F 53% 30.27 in - West 36.8 mph - N/A   Unknown
5:54 AM 14.0 °F -9.1 °F 1.4 °F 57% 30.25 in - West 39.1 mph 48.3 mph N/A   Scattered Clouds
6:14 AM 14.0 °F -9.3 °F 1.4 °F 57% 30.26 in - West 40.3 mph - N/A   Overcast
6:34 AM 14.0 °F -9.1 °F 1.4 °F 57% 30.27 in - West 39.1 mph - N/A   Overcast
6:54 AM 14.0 °F -9.1 °F 3.2 °F 62% 30.26 in - West 39.1 mph - N/A   Scattered Clouds
7:14 AM 14.0 °F -9.6 °F 3.2 °F 62% 30.26 in - West 41.4 mph - N/A   Clear
7:34 AM 14.0 °F -9.8 °F 3.2 °F 62% 30.25 in - West 42.6 mph - N/A   Clear
8:14 AM 14.0 °F -10.9 °F 3.2 °F 62% 30.26 in - West 48.3 mph 51.8 mph N/A   Clear
8:34 AM 15.8 °F -7.9 °F 5.0 °F 62% 30.26 in - West 46.0 mph 52.9 mph N/A   Clear
8:54 AM 17.6 °F -5.4 °F 8.6 °F 68% 30.27 in - West 46.0 mph 58.7 mph N/A   Clear
9:34 AM 17.6 °F -5.2 °F 8.6 °F 68% 30.28 in - West 44.9 mph 55.2 mph N/A   Clear
9:54 AM 19.4 °F -2.4 °F 8.6 °F 63% 30.29 in - West 43.7 mph 48.3 mph N/A   Clear
10:14 AM 19.4 °F -2.2 °F 8.6 °F 63% 30.28 in - West 42.6 mph 47.2 mph N/A   Clear
10:34 AM 19.4 °F -2.4 °F 8.6 °F 63% 30.27 in - West 43.7 mph 55.2 mph N/A   Clear
10:54 AM 19.4 °F -2.2 °F 8.6 °F 63% 30.28 in - West 42.6 mph 54.1 mph N/A   Clear
11:14 AM 21.2 °F 0.3 °F 8.6 °F 58% 30.28 in - West 42.6 mph 54.1 mph N/A   Clear
11:34 AM 21.2 °F -0.9 °F 8.6 °F 58% 30.27 in - West 49.5 mph 58.7 mph N/A   Clear
11:54 AM 21.2 °F 0.9 °F 8.6 °F 58% 30.28 in - West 39.1 mph 49.5 mph N/A   Clear
12:14 PM 23.0 °F 2.8 °F 8.6 °F 54% 30.29 in - West 42.6 mph 52.9 mph N/A   Clear
12:34 PM 23.0 °F 2.8 °F 8.6 °F 54% 30.27 in - West 42.6 mph 54.1 mph N/A   Clear
12:54 PM 23.0 °F 3.4 °F 8.6 °F 54% 30.27 in - West 39.1 mph 54.1 mph N/A   Clear
1:14 PM 24.8 °F 5.1 °F 8.6 °F 50% 30.27 in - West 43.7 mph 52.9 mph N/A   Clear
1:34 PM 24.8 °F 5.3 °F 8.6 °F 50% 30.26 in - West 42.6 mph 54.1 mph N/A   Clear
1:54 PM 26.6 °F 8.3 °F 8.6 °F 47% 30.26 in - West 40.3 mph 50.6 mph N/A   Clear
2:14 PM 28.4 °F 11.2 °F 8.6 °F 43% 30.26 in - West 38.0 mph 46.0 mph N/A   Clear
2:34 PM 28.4 °F 10.0 °F 8.6 °F 43% 30.25 in - West 44.9 mph 51.8 mph N/A   Clear
2:54 PM 28.4 °F 10.2 °F 8.6 °F 43% 30.26 in - West 43.7 mph 57.5 mph N/A   Clear
3:14 PM 28.4 °F 9.5 °F 8.6 °F 43% 30.26 in - West 48.3 mph - N/A   Clear
3:34 PM 30.2 °F 13.3 °F 8.6 °F 40% 30.27 in - West 40.3 mph 55.2 mph N/A   Clear
3:54 PM 30.2 °F 12.5 °F 8.6 °F 40% 30.27 in - West 44.9 mph 55.2 mph N/A   Clear
4:14 PM 30.2 °F 12.0 °F 6.8 °F 37% 30.27 in - West 48.3 mph 55.2 mph N/A   Clear
4:34 PM 28.4 °F 11.2 °F 6.8 °F 40% 30.29 in - West 38.0 mph 55.2 mph N/A   Clear
4:54 PM 28.4 °F 9.8 °F 6.8 °F 40% 30.29 in - West 46.0 mph 57.5 mph N/A   Clear
5:14 PM 28.4 °F 10.2 °F 5.0 °F 37% 30.29 in - West 43.7 mph 51.8 mph N/A   Clear
5:34 PM 28.4 °F 11.0 °F 5.0 °F 37% 30.30 in - West 39.1 mph 47.2 mph N/A   Clear
5:54 PM 26.6 °F 8.5 °F 5.0 °F 40% 30.31 in - West 39.1 mph 46.0 mph N/A   Clear
6:14 PM 24.8 °F 6.0 °F 5.0 °F 43% 30.31 in - West 39.1 mph 50.6 mph N/A   Clear
6:34 PM 24.8 °F 5.5 °F 5.0 °F 43% 30.32 in - West 41.4 mph 46.0 mph N/A   Clear
6:54 PM 23.0 °F 3.7 °F 5.0 °F 46% 30.34 in - West 38.0 mph 47.2 mph N/A   Clear
7:14 PM 23.0 °F 3.7 °F 5.0 °F 46% 30.34 in - West 38.0 mph - N/A   Clear
7:34 PM 23.0 °F 3.9 °F 5.0 °F 46% 30.34 in - West 36.8 mph - N/A   Clear
7:54 PM 23.0 °F 3.7 °F 5.0 °F 46% 30.34 in - West 38.0 mph 44.9 mph N/A   Clear
8:14 PM 23.0 °F 4.1 °F 5.0 °F 46% 30.35 in - West 35.7 mph - N/A   Clear
8:34 PM 23.0 °F 3.9 °F 5.0 °F 46% 30.34 in - West 36.8 mph - N/A   Clear
8:54 PM 23.0 °F 3.2 °F 5.0 °F 46% 30.34 in - West 40.3 mph 44.9 mph N/A   Clear
9:14 PM 23.0 °F 3.4 °F 5.0 °F 46% 30.34 in - West 39.1 mph - N/A   Clear
9:34 PM 23.0 °F - 5.0 °F 46% 30.35 in - North - - N/A   Clear
9:54 PM 23.0 °F 3.9 °F 5.0 °F 46% 30.36 in - West 36.8 mph - N/A   Clear
10:14 PM 23.0 °F - 5.0 °F 46% 30.36 in - North - - N/A   Clear
10:34 PM 21.2 °F - 5.0 °F 50% 30.38 in - North - - N/A   Clear
10:54 PM 21.2 °F - 5.0 °F 50% 30.38 in - North - - N/A   Clear
11:14 PM 21.2 °F - 5.0 °F 50% 30.38 in - North - - N/A   Clear
11:34 PM 21.2 °F - 5.0 °F 50% 30.36 in - North - - N/A   Clear
11:54 PM 21.2 °F - 6.8 °F 54% 30.36 in - North - - N/A   Clear